Regional Weather Roundup
Issued by NWS Goodland, KS

Home | Current Version | Previous Version | Text Only | Print | Product List | Glossary Off
Versions: 1 2 3 4 5 6 7 8 9 10 11 12 13 14 15 16 17 18 19 20 21 22 23 24 25 26 27 28 29 30 31 32 33 34 35 36 37 38 39 40 41 42 43 44 45 46 47 48 49 50

000
ASUS43 KGLD 290608
RWRGLD

GOODLAND FORECAST AREA HOURLY WEATHER ROUNDUP
NATIONAL WEATHER SERVICE GOODLAND KS
1200 AM MDT FRI JUL 29 2016

...OFFICIAL OBSERVATIONS...

CITY           SKY/WX    TMP DP  RH WIND       PRES   REMARKS
GOODLAND KS    CLOUDY    64  61  90 SE3       30.17R
HILL CITY KS   CLOUDY    68  67  96 S5        30.10R
IMPERIAL NEB   CLEAR     63  60  90 CALM      30.17R
MCCOOK NEB     CLEAR     63  60  90 CALM      30.11S
AKRON CO       CLOUDY    62  58  86 SE7       30.23R
BURLINGTON CO  CLOUDY    64  58  80 E6        30.21R
LIMON CO       CLOUDY    63  61  93 E6        30.25S
$$

...UNOFFICIAL OBSERVATIONS...

CITY           SKY/WX    TMP DP  RH WIND       PRES   REMARKS
LENORA KS        N/A     66  32  28 MISG        N/A
NORTON KS      CLEAR     68  64  88 NE7       30.08F
SHARON SPRINGS   N/A     66  63  90 CALM        N/A
KIT CARSON CO    N/A     66  61  84 CALM        N/A
YUMA CO          N/A     62  59  91 CALM        N/A
$$



USA.gov is the U.S. government's official web portal to all federal, state and local government web resources and services.